« Back
NWS Peachtree City, Ga » Text Product » GA Regional Weather Roundup


Printer-friendly Version
Current Version              Previous Versions:   1  2  3  4  5  6  7  8  9  

Regional Weather Roundup

280
ASUS42 KFFC 290703
RWRGA
WEATHER ROUNDUP FOR GEORGIA
NATIONAL WEATHER SERVICE PEACHTREE CITY GA
300 AM EDT FRI APR 29 2016

NOTE: "FAIR" INDICATES FEW OR NO CLOUDS BELOW 12,000 FEET WITH NO
SIGNIFICANT WEATHER AND/OR OBSTRUCTIONS TO VISIBILITY.

* = USE WITH CAUTION. THE STATIONS MARKED WITH AN ASTERISK MAY NOT
REPORT WEATHER SUCH AS PRECIPITATION, FOG, OR THUNDER AND ARE NOT
QUALITY CONTROLLED BY NWS.

THE REMARK "TC" DENOTES TEMPERATURE READING IN DEGREES CELSIUS.

GAZ001>058-290800-
NORTH GEORGIA

CITY           SKY/WX    TMP DP  RH WIND       PRES   REMARKS
ATLANTA        CLEAR     67  58  72 W7        29.97S
ATHENS         CLEAR     63  59  87 SW3       29.95F
CHAMBLEE       CLEAR     62  59  90 CALM      29.96F
PEACHTREE CITY CLEAR     62  61  96 CALM      29.98S
ROME           CLEAR     59  57  93 CALM      29.96S
WEST ATLANTA   CLEAR     62  58  86 CALM      29.96F
GAINESVILLE    CLEAR     63  55  75 CALM      29.98F
CARTERSVILLE   CLEAR     59  58  96 CALM      29.97F


CITY           SKY/WX    TMP DP  RH WIND       PRES   REMARKS
DALTON*        CLEAR     59  59 100 CALM      29.97S
MARIETTA       CLEAR     63  59  86 W7        29.96F
CANTON*        CLEAR     64  52  63 CALM      29.98F
BLAIRSVILLE*     N/A    N/A N/A N/A MISG      30.01S
$$

GAZ059>098-102>109-290800-
CENTRAL GEORGIA

CITY           SKY/WX    TMP DP  RH WIND       PRES   REMARKS
AUGUSTA-BUSH   CLEAR     71  67  87 W7        29.91F
AUGUSTA-DANIEL CLEAR     73  66  78 VRB5      29.93F
COLUMBUS       CLEAR     68  66  93 CALM      29.96F
MACON          CLEAR     68  66  93 W5        29.95F FOG
ROBINS AFB     CLEAR     67  67 100 CALM      29.95S


CITY           SKY/WX    TMP DP  RH WIND       PRES   REMARKS
LAGRANGE*      MOCLDY    63  63 100 CALM      29.98F FOG
SYLVANIA*        N/A     67  67 100 CALM      29.94S FOG
MILLEDGEVILLE* CLEAR     68  66  94 CALM      29.94F
$$

GAZ099>101-110>166-290800-
SOUTH GEORGIA

CITY           SKY/WX    TMP DP  RH WIND       PRES   REMARKS
SAVANNAH       PTCLDY    70  67  90 SW5       29.94F
VALDOSTA       CLOUDY    73  72  96 CALM      29.97F FOG
ALMA           PTCLDY    68  66  93 S3        29.95F
ST SIMONS      PTCLDY    70  69  97 SW6       29.95F
FT STEWART     PTCLDY    70  66  89 CALM      29.93S
ALBANY         CLEAR     69  68  96 W5        29.98F FOG
HUNTER AFB     PTCLDY    70  70  99 SW3       29.92F
MOODY AFB      CLOUDY    72  71  94 W5        29.96S
BRUNSWICK      PTCLDY    72  70  94 W3        29.96S


CITY           SKY/WX    TMP DP  RH WIND       PRES   REMARKS
BAINBRIDGE*    CLOUDY    72  70  94 CALM      29.98S FOG
MOULTRIE*      CLOUDY    73  70  88 W3        29.98S
VIDALIA*       CLEAR     68  66  94 SW3       29.96R
WAYCROSS*      MOCLDY    69  69 100 SW6       29.96F FOG
DOUGLAS*       PTCLDY    70  68  94 CALM      29.97F
$$




USA.gov is the U.S. government's official web portal to all federal, state and local government web resources and services.